Content
SEND FEEDBACK

Daily
Averages
Monthly
Summary
United States of America

PORTSMOUTH, VIRGINIA


Home > North America > United States > Virginia
Elevation: 14 feet     Latitude: 36 54N     Longitude: 076 12W

WEATHER
 
SELECT A DAY
Number of Records: 89,971;   Date Range: 1/1/95 - 7/23/14
 
SHARE

PRINT THIS DATA

[ ← Previous Day ]
WEATHER ALMANAC - FEBRUARY 5, 2013
[ Next Day → ]
[ °C ]   °F
Weather ElementAverageHighLow
Temperature47 °F55.9 °F (1:51 pm)39.9 °F (5:51 am)
Dewpoint30.6 °F33.8 °F (9:51 pm)27 °F (1:51 am)
Humidity54.2 %68 % (5:51 am)37 % (12:51 pm)
Barometer29.92 in29.96 in (8:51 am)29.85 in (3:51 pm)
Wind Speed8.8 mph17.3 mph (1:51 am)
Weather ElementAverage
Visibility10 mi
Wind DirectionSSW (213.5 °)

Weather ElementTotal
Precipitation---
Heating Degree Days17.1 (Base 65)
Averaged from 23 records on February 5, 2013
WEATHER CONDITIONS BREAKOUT
WIND DIRECTION BREAKOUT
WEATHER BY HOUR - FEBRUARY 5, 2013
[ °C ]   °F
Local TimeTemperatureDewpointHumidityBarometerVisibilityWind DirectionWind SpeedGust SpeedPrecipitationEventsConditions
1:51 AM41.0 °F27.0 °F57 %29.95 in10.0 miSSW (210°)17.3 mphOvercast
2:51 AM41.0 °F28.4 °F61 %29.94 in10.0 miSW (220°)12.7 mphOvercast
3:51 AM41.0 °F28.4 °F61 %29.94 in10.0 miSSW (210°)9.2 mphOvercast
4:51 AM41.0 °F28.9 °F62 %29.94 in10.0 miSSW (200°)8.1 mphMostly Cloudy
5:51 AM39.9 °F30.0 °F68 %29.94 in10.0 miSSW (200°)6.9 mphPartly Cloudy
6:51 AM41.0 °F30.0 °F65 %29.94 in10.0 miSSW (210°)10.4 mphOvercast
7:51 AM42.1 °F30.0 °F62 %29.95 in10.0 miSSW (210°)11.5 mphMostly Cloudy
8:51 AM43.0 °F30.0 °F60 %29.96 in10.0 miSW (220°)15.0 mphMostly Cloudy
9:51 AM46.0 °F30.9 °F56 %29.95 in10.0 miSSW (210°)12.7 mphMostly Cloudy
10:51 AM48.9 °F30.0 °F48 %29.95 in10.0 miSW (230°)11.5 mphOvercast
11:51 AM53.6 °F30.2 °F41 %29.92 in10.0 miSW (220°)11.5 mphScattered Clouds
12:51 PM55.0 °F28.9 °F37 %29.89 in10.0 miWSW (250°)10.4 mphScattered Clouds
1:51 PM55.9 °F30.9 °F39 %29.87 in10.0 miWSW (240°)9.2 mphOvercast
2:51 PM55.9 °F32.0 °F40 %29.86 in10.0 miWSW (250°)6.9 mphOvercast
3:51 PM55.9 °F32.0 °F40 %29.85 in10.0 miSW (230°)6.9 mphOvercast
4:51 PM55.0 °F32.0 °F42 %29.86 in10.0 miWSW (240°)8.1 mphOvercast
5:51 PM51.1 °F32.0 °F48 %29.87 in10.0 miCalmClear
6:51 PM48.0 °F32.0 °F54 %29.90 in10.0 miSW (220°)6.9 mphClear
7:51 PM46.0 °F32.0 °F58 %29.91 in10.0 miSSW (210°)6.9 mphClear
8:51 PM44.1 °F32.0 °F63 %29.91 in10.0 miSSW (210°)6.9 mphClear
9:51 PM44.6 °F33.8 °F66 %29.92 in10.0 miSW (230°)5.8 mphClear
10:51 PM48.9 °F32.0 °F52 %29.93 in10.0 miWSW (250°)3.5 mphClear
11:51 PM41.0 °F30.9 °F67 %29.93 in10.0 miWSW (240°)3.5 mphClear
Hourly data recorded from KORF, located miles away from Portsmouth, Virginia







STORIES FROM OUR PARTNERS